Weather History for MMTC - October, 2012

Change the Weather History Date:

Sunday, October 28, 2012

  Actual Average Record
Temperature  
Mean Temperature 66 °F -  
Max Temperature 78 °F 75 °F 92 °F (2013)
Min Temperature 55 °F 52 °F 42 °F (2003)
Cooling Degree Days 2    
Growing Degree Days 16 (Base 50)    
Moisture  
Dew Point 51 °F    
Average Humidity 59    
Maximum Humidity 82    
Minimum Humidity 39    
Precipitation  
Precipitation 0.00 in - - ()
Sea Level Pressure  
Sea Level Pressure 30.07 in    
Wind  
Wind Speed 1 mph ()    
Max Wind Speed 6 mph    
Max Gust Speed -    
Visibility 10.6 miles    
Events      
Averages and records for this station are not official NWS values.
T = Trace of Precipitation, MM = Missing Value Source: Averaged Metar Reports

Daily Weather History Graph

Daily Weather History Graph

Search for Another Location

Airport or City:

Trip Planner

Search our weather history database for the weather conditions in past years. The results will help you decide how hot, cold, wet, or windy it might be!

Date:

Astronomy

Oct. 28, 2012 Rise Set
Actual Time 6:59 AM CST 6:14 PM CST
Civil Twilight 6:36 AM CST 6:38 PM CST
Nautical Twilight 6:09 AM CST 7:05 PM CST
Astronomical Twilight 5:42 AM CST 7:32 PM CST
Moon 5:33 PM CST (10/28) 5:57 AM CST (10/28)
Length of Visible Light 12h 02m
Length of Day
11h 15m
Waxing Gibbous, 99% of the Moon is Illuminated
Oct 28
Waxing Gibbous
Oct 29
Full
Nov 6
Last Quarter
Nov 13
New
Nov 20
First Quarter

Hourly Weather History & Observations

Time (CST) Temp. Dew Point Humidity Pressure Visibility Wind Dir Wind Speed Gust Speed Precip Events Conditions
12:58 AM 61 °F 53 °F 68% 29.96 in 6 mi ENE 2.2 mph - -   Clear
2:52 AM 58 °F 50 °F 68% 30.00 in 6 mi ENE 2.2 mph - -   Partly Cloudy
5:03 AM 55.4 °F 46.4 °F 72% 30.15 in 10.0 mi Calm Calm - N/A   Scattered Clouds
5:40 AM 55.4 °F 46.4 °F 72% 30.03 in 10.0 mi Calm Calm - N/A   Scattered Clouds
5:58 AM 56 °F 52 °F 82% 30.04 in 6 mi NE 2.2 mph - -   Partly Cloudy
6:40 AM 55.4 °F 46.4 °F 72% 30.17 in 10.0 mi Calm Calm - N/A   Scattered Clouds
7:40 AM 55.4 °F 46.4 °F 72% 30.19 in 10.0 mi Calm Calm - N/A   Mostly Cloudy
8:42 AM 57.2 °F 44.6 °F 63% 30.09 in 10.0 mi Calm Calm - N/A   Mostly Cloudy
8:48 AM 58 °F 50 °F 66% 30.10 in 19 mi NW 4.5 mph - -   Mostly Cloudy
9:42 AM 59.0 °F 46.4 °F 63% 30.21 in 10.0 mi Calm Calm - N/A   Mostly Cloudy
10:44 AM 62.6 °F 48.2 °F 59% 30.21 in 8.0 mi Calm Calm - N/A   Overcast
11:45 AM 64.4 °F 50.0 °F 59% 30.07 in 8.0 mi Calm Calm - N/A   Scattered Clouds
11:50 AM 69 °F 56 °F 53% 30.08 in 19 mi SW 2.2 mph - -   Clear
12:40 PM 68.0 °F 50.0 °F 52% 30.16 in 8.0 mi Calm Calm - N/A   Scattered Clouds
1:40 PM 71.6 °F 51.8 °F 50% 30.12 in 8.0 mi Calm Calm - N/A   Scattered Clouds
2:44 PM 73.4 °F 53.6 °F 50% 29.91 in 10.0 mi North 5.8 mph - N/A   Scattered Clouds
2:46 PM 77 °F 59 °F 44% 29.96 in 19 mi NNE 4.5 mph - -   Clear
3:40 PM 77.0 °F 50.0 °F 39% 30.07 in 10.0 mi NNE 4.6 mph - N/A   Mostly Cloudy
4:40 PM 75.2 °F 51.8 °F 44% 30.06 in 10.0 mi North 3.5 mph - N/A   Mostly Cloudy
5:47 PM 75.2 °F 51.8 °F 44% 29.91 in 15.0 mi Calm Calm - N/A   Mostly Cloudy
5:50 PM 75 °F 60 °F 50% 29.90 in 19 mi NE 2.2 mph - -   Clear
6:47 PM 73.4 °F 53.6 °F 50% 30.08 in 10.0 mi Calm Calm - N/A   Mostly Cloudy
7:49 PM 69.8 °F 53.6 °F 56% 30.10 in 10.0 mi ENE 3.5 mph - N/A   Scattered Clouds
8:50 PM 68.0 °F 51.8 °F 56% 29.97 in 10.0 mi Calm Calm - N/A   Clear
8:54 PM 69 °F 59 °F 63% 29.92 in 6 mi SE 2.2 mph - -   Clear
9:44 PM 68.0 °F 51.8 °F 56% 30.14 in 10.0 mi ENE 2.3 mph - N/A   Clear
10:40 PM 64.4 °F 51.8 °F 64% 30.16 in 10.0 mi ENE 3.5 mph - N/A   Clear